Location: Bettgenhausen
(50.6463°N, 7.5681°E)
Time: 15:03:28
(UTC+00:00)

Cosmos 2263 Rocket - Pass Details

Date: 27 February 2020
Orbit: 822 x 850 km, 71.0° (Epoch: 08 April)

Event Time Altitude Azimuth Distance (km) Brightness Sun altitude
Rises 20:35:25 0° 332° (NNW) 3,416 6.2 -32.8°
Reaches altitude 10° 20:37:59 10° 338° (NNW) 2,481 5.2 -33.1°
Enters shadow 20:41:13 31° 360° (N) 1,453 3.6 -33.6°
